FLOCK 2'-6

Last updated on Tue Aug 02 2016 18:39:13 GMT+0100 (British Summer Time)

1 41606U 16040H 16215.49055819 .00001813 00000-0 88037-4 0 9997 2 41606 97.5030 274.4056 0013509 107.3913 252.8800 15.19682626 6268
UTC large
Height (km)
Speed (km/s)
/
Latitude / Longitude
Inclination (degrees)
Orbital Period (minutes)
Azimuth
Elevation
Range (km)
Doppler Factor

Next 0 passes for location: London (51.5072 / 0.1276)

Sorry there are no passes over London.